EW8558 Weather Reports


Display with metric or nautical units.
time (UTC)temp
F
wind
direction
speed
MPH
gust
MPH
rain 1hr
in
rain 24hr
in
rain mn
in
humidity
%
barometer
mb
20180721040459 65 19 7.0 12.0 0.00 0.00 0.00 79 1009.7
20180721034932 65 42 9.0 14.0 0.00 0.00 0.00 79 1009.8
20180721033448 66 42 9.0 13.0 0.00 0.00 0.00 80 1009.8
20180721031918 66 59 6.0 13.0 0.00 0.00 0.00 82 1009.9
20180721030357 66 253 2.0 10.0 0.00 0.00 0.00 84 1010.0
20180721024920 66 322 3.0 9.0 0.00 0.00 0.00 84 1010.1
20180721023401 66 312 4.0 10.0 0.00 0.00 0.00 84 1010.2
20180721021836 66 50 6.0 13.0 0.00 0.00 0.00 84 1010.3
20180721020303 67 52 7.0 14.0 0.00 0.00 0.00 82 1010.4
20180721014837 67 7 6.0 9.0 0.00 0.00 0.00 83 1010.6
20180721013303 67 313 3.0 12.0 0.00 0.00 0.00 81 1010.6
20180721011737 67 355 6.0 13.0 0.00 0.00 0.00 79 1010.6
20180721010301 67 38 7.0 13.0 0.00 0.00 0.00 77 1010.6
20180721004733 67 52 5.0 13.0 0.00 0.00 0.00 76 1010.6
20180721003157 67 313 4.0 9.0 0.00 0.00 0.00 79 1010.7
20180721001730 68 342 4.0 8.0 0.00 0.00 0.00 78 1010.8
20180721000200 68 350 5.0 10.0 0.00 0.00 0.00 77 1010.7
20180720234731 67 9 4.0 9.0 0.00 0.00 0.00 78 1010.9
20180720233150 67 349 3.0 6.0 0.00 0.00 0.00 78 1011.0
20180720231622 67 350 1.0 6.0 0.00 0.00 0.00 80 1011.1
20180720230152 67 325 3.0 8.0 0.00 0.00 0.00 79 1011.2
20180720224619 67 22 3.0 10.0 0.00 0.00 0.00 79 1011.1
20180720223047 67 296 3.0 7.0 0.00 0.00 0.00 77 1011.2
20180720221608 67 30 5.0 9.0 0.00 0.00 0.00 74 1011.2
20180720220040 68 21 5.0 10.0 0.00 0.00 0.00 73 1011.3
20180720214520 68 57 6.0 9.0 0.00 0.00 0.00 71 1011.3
20180720213155 68 57 3.0 8.0 0.00 0.00 0.00 69 1011.5
20180720211521 68 60 7.0 10.0 0.00 0.00 0.00 68 1011.6
20180720210043 68 336 5.0 10.0 0.00 0.00 0.00 69 1011.7
20180720204513 68 74 8.0 11.0 0.00 0.00 0.00 71 1011.7
20180720202939 68 62 8.0 12.0 0.00 0.00 0.00 73 1011.8
20180720201511 68 38 4.0 10.0 0.00 0.00 0.00 74 1011.7
20180720195938 68 55 3.0 11.0 0.00 0.00 0.00 71 1011.8
20180720194454 69 44 5.0 11.0 0.00 0.00 0.00 69 1011.7
20180720192921 69 300 6.0 9.0 0.00 0.00 0.00 69 1011.5
20180720191354 69 258 5.0 11.0 0.00 0.00 0.00 74 1011.5
20180720185923 69 328 6.0 12.0 0.00 0.00 0.00 76 1011.5
20180720184345 69 13 7.0 14.0 0.00 0.00 0.00 75 1011.6
20180720182910 70 47 8.0 12.0 0.00 0.00 0.00 74 1011.5
20180720181337 70 14 7.0 14.0 0.00 0.00 0.00 70 1011.5
20180720175823 70 341 7.0 16.0 0.00 0.00 0.00 65 1011.7
20180720174259 70 356 10.0 16.0 0.00 0.00 0.00 63 1011.7
20180720172848 71 45 7.0 13.0 0.00 0.00 0.00 63 1011.5
20180720171540 71 351 9.0 15.0 0.00 0.00 0.00 63 1011.5
20180720165819 71 51 12.0 15.0 0.00 0.00 0.00 61 1011.5
20180720164253 72 29 11.0 17.0 0.00 0.00 0.00 59 1011.7
20180720162742 72 55 11.0 16.0 0.00 0.00 0.00 56 1011.6
20180720161230 73 247 8.0 12.0 0.00 0.00 0.00 56 1011.8
20180720155715 73 52 8.0 18.0 0.00 0.00 0.00 58 1011.9
20180720154150 73 22 7.0 15.0 0.00 0.00 0.00 56 1012.0
20180720152727 73 294 9.0 18.0 0.00 0.00 0.00 56 1012.1
20180720151209 73 353 10.0 14.0 0.00 0.00 0.00 57 1012.3
20180720145643 73 45 8.0 18.0 0.00 0.00 0.00 56 1012.5
20180720144214 73 76 7.0 14.0 0.00 0.00 0.00 55 1012.7
20180720142640 73 355 7.0 16.0 0.00 0.00 0.00 54 1012.7
20180720141109 72 358 14.0 19.0 0.00 0.00 0.00 55 1012.7
20180720135642 73 21 8.0 20.0 0.00 0.00 0.00 54 1012.8
20180720134109 74 228 4.0 13.0 0.00 0.00 0.00 50 1012.8
20180720132538 73 339 6.0 17.0 0.00 0.00 0.00 50 1013.0
20180720131108 74 19 6.0 15.0 0.00 0.00 0.00 48 1013.0
20180720125537 74 345 9.0 18.0 0.00 0.00 0.00 49 1012.9
20180720124008 74 79 7.0 12.0 0.00 0.00 0.00 48 1013.1
20180720122542 74 160 5.0 13.0 0.00 0.00 0.00 49 1013.1
20180720121014 74 19 6.0 17.0 0.00 0.00 0.00 48 1013.1
20180720115453 74 360 7.0 16.0 0.00 0.00 0.00 48 1013.2
20180720114021 73 8 9.0 16.0 0.00 0.00 0.00 49 1013.3
20180720112451 73 7 5.0 16.0 0.00 0.00 0.00 50 1013.4
20180720110927 73 9 5.0 17.0 0.00 0.00 0.00 51 1013.5
20180720105358 73 5 7.0 14.0 0.00 0.00 0.00 54 1013.5
20180720103930 73 338 4.0 9.0 0.00 0.00 0.00 54 1013.5
20180720102357 73 48 3.0 9.0 0.00 0.00 0.00 54 1013.6
20180720100841 72 282 1.0 9.0 0.00 0.00 0.00 54 1013.6
20180720095317 72 69 2.0 10.0 0.00 0.00 0.00 56 1013.7
20180720093844 71 38 4.0 10.0 0.00 0.00 0.00 60 1013.7
20180720092315 70 62 7.0 11.0 0.00 0.00 0.00 62 1013.7
20180720090841 70 3 4.0 10.0 0.00 0.00 0.00 66 1013.7
20180720085308 69 11 2.0 8.0 0.00 0.00 0.00 67 1013.8
20180720083747 69 41 4.0 8.0 0.00 0.00 0.00 72 1013.8
20180720082330 68 11 5.0 8.0 0.00 0.00 0.00 72 1013.9
20180720080713 68 36 4.0 8.0 0.00 0.00 0.00 72 1013.9
20180720075202 68 332 3.0 8.0 0.00 0.00 0.00 74 1014.1
20180720073647 67 1 5.0 8.0 0.00 0.00 0.00 75 1014.2
20180720072139 67 40 1.0 3.0 0.00 0.00 0.00 77 1014.3
20180720070628 66 55 0.0 5.0 0.00 0.00 0.00 79 1014.3
20180720065116 66 29 1.0 4.0 0.00 0.00 0.00 80 1014.2
20180720063658 66 158 0.0 4.0 0.00 0.00 0.00 80 1014.3
20180720062145 65 123 0.0 2.0 0.00 0.00 0.00 82 1014.3
20180720060627 64 59 0.0 3.0 0.00 0.00 0.00 84 1014.3
20180720055100 64 3 0.0 5.0 0.00 0.00 0.00 86 1014.4
20180720053538 63 81 1.0 4.0 0.00 0.00 0.00 87 1014.4
20180720052017 62 59 2.0 5.0 0.00 0.00 0.00 89 1014.5
20180720050551 61 67 3.0 6.0 0.00 0.00 0.00 89 1014.4
20180720045026 61 64 2.0 5.0 0.00 0.00 0.00 89 1014.4
20180720043502 61 71 2.0 5.0 0.00 0.00 0.00 89 1014.5
20180720042029 61 148 1.0 3.0 0.00 0.00 0.00 88 1014.6